contact:dominique.lefevre@mio.osupytheas.fr, maurice.libes@osupytheas.fr, didier.mallarino@osupytheas.fr
Project:EMSO http://www.emso-fr.org/EMSO-France
Depth: 2436.0 m
Title:EMSO Ligure Ouest : Data MII capteur MICROCAT
DateTime_Computer,Latitude,Longitude,Temperature,Conductivity,Pressure,DateTime_Instrument
DateTime_Computer,Latitude,Longitude,degC,S m-1,dbar,DateTime_Instrument
2020-05-08T00:01:00Z,42.805,6.029,13.2974,4.59983,2469.993,2020-5-08T02:01:42Z
2020-05-08T00:04:03Z,42.805,6.029,13.2969,4.59980,2469.993,2020-5-08T02:04:45Z
2020-05-08T00:07:07Z,42.805,6.029,13.2975,4.59997,2470.017,2020-5-08T02:07:48Z
2020-05-08T00:10:10Z,42.805,6.029,13.2974,4.59994,2470.03,2020-5-08T02:10:51Z
2020-05-08T00:13:13Z,42.805,6.029,13.2979,4.59986,2469.993,2020-5-08T02:13:55Z
2020-05-08T00:16:17Z,42.805,6.029,13.2978,4.59989,2470.017,2020-5-08T02:16:58Z
2020-05-08T00:19:20Z,42.805,6.029,13.2975,4.59984,2470.007,2020-5-08T02:20:01Z
2020-05-08T00:22:23Z,42.805,6.029,13.2978,4.59989,2469.984,2020-5-08T02:23:05Z
2020-05-08T00:25:26Z,42.805,6.029,13.2976,4.59987,2469.993,2020-5-08T02:26:08Z
2020-05-08T00:28:30Z,42.805,6.029,13.2977,4.59988,2470.03,2020-5-08T02:29:11Z
2020-05-08T00:31:33Z,42.805,6.029,13.2974,4.59986,2469.984,2020-5-08T02:32:14Z
2020-05-08T00:34:36Z,42.805,6.029,13.2970,4.59991,2470.017,2020-5-08T02:35:18Z
2020-05-08T00:37:39Z,42.805,6.029,13.2969,4.59991,2469.984,2020-5-08T02:38:21Z
2020-05-08T00:40:43Z,42.805,6.029,13.2974,4.59978,2470.04,2020-5-08T02:41:24Z
2020-05-08T00:43:46Z,42.805,6.029,13.2971,4.59986,2469.97,2020-5-08T02:44:27Z
2020-05-08T00:46:49Z,42.805,6.029,13.2974,4.59981,2470.007,2020-5-08T02:47:31Z
2020-05-08T00:49:53Z,42.805,6.029,13.2972,4.59978,2469.947,2020-5-08T02:50:34Z
2020-05-08T00:52:56Z,42.805,6.029,13.2971,4.59981,2469.947,2020-5-08T02:53:37Z
2020-05-08T00:55:59Z,42.805,6.029,13.2978,4.59984,2469.947,2020-5-08T02:56:40Z
2020-05-08T00:59:02Z,42.805,6.029,13.2975,4.59992,2469.993,2020-5-08T02:59:44Z
2020-05-08T01:02:06Z,42.805,6.029,13.2972,4.59983,2469.984,2020-5-08T03:02:47Z
2020-05-08T01:05:09Z,42.805,6.029,13.2972,4.59988,2470.007,2020-5-08T03:05:50Z
2020-05-08T01:08:12Z,42.805,6.029,13.2974,4.59984,2470.007,2020-5-08T03:08:53Z
2020-05-08T01:11:15Z,42.805,6.029,13.2974,4.59982,2469.923,2020-5-08T03:11:57Z
2020-05-08T01:14:18Z,42.805,6.029,13.2979,4.59991,2469.984,2020-5-08T03:15:00Z
2020-05-08T01:17:22Z,42.805,6.029,13.2980,4.60003,2469.97,2020-5-08T03:18:03Z
2020-05-08T01:20:25Z,42.805,6.029,13.2971,4.59986,2469.937,2020-5-08T03:21:06Z
2020-05-08T01:23:28Z,42.805,6.029,13.2976,4.59996,2469.984,2020-5-08T03:24:09Z
2020-05-08T01:26:32Z,42.805,6.029,13.2982,4.59991,2469.947,2020-5-08T03:27:13Z
2020-05-08T01:29:35Z,42.805,6.029,13.2976,4.59996,2469.947,2020-5-08T03:30:16Z
2020-05-08T01:32:38Z,42.805,6.029,13.2971,4.59994,2469.97,2020-5-08T03:33:20Z
2020-05-08T01:35:41Z,42.805,6.029,13.2976,4.59986,2469.933,2020-5-08T03:36:23Z
2020-05-08T01:38:45Z,42.805,6.029,13.2978,4.59983,2469.947,2020-5-08T03:39:26Z
2020-05-08T01:41:48Z,42.805,6.029,13.2971,4.59980,2469.9,2020-5-08T03:42:29Z
2020-05-08T01:44:51Z,42.805,6.029,13.2978,4.59992,2469.947,2020-5-08T03:45:32Z
2020-05-08T01:47:54Z,42.805,6.029,13.2973,4.59981,2469.984,2020-5-08T03:48:36Z
2020-05-08T01:50:58Z,42.805,6.029,13.2974,4.59991,2469.97,2020-5-08T03:51:39Z
2020-05-08T01:54:01Z,42.805,6.029,13.2978,4.59986,2469.947,2020-5-08T03:54:42Z
2020-05-08T01:57:04Z,42.805,6.029,13.2980,4.59997,2469.947,2020-5-08T03:57:46Z
2020-05-08T02:00:07Z,42.805,6.029,13.2973,4.59986,2469.947,2020-5-08T04:00:49Z
2020-05-08T02:03:11Z,42.805,6.029,13.2972,4.59985,2469.96,2020-5-08T04:03:52Z
2020-05-08T02:06:14Z,42.805,6.029,13.2974,4.59987,2469.937,2020-5-08T04:06:55Z
2020-05-08T02:09:17Z,42.805,6.029,13.2979,4.59981,2469.947,2020-5-08T04:09:58Z
2020-05-08T02:12:20Z,42.805,6.029,13.2974,4.59999,2469.937,2020-5-08T04:13:02Z
2020-05-08T02:15:23Z,42.805,6.029,13.2975,4.59988,2469.984,2020-5-08T04:16:05Z
2020-05-08T02:18:27Z,42.805,6.029,13.2983,4.59996,2469.947,2020-5-08T04:19:08Z
2020-05-08T02:21:30Z,42.805,6.029,13.2982,4.59991,2469.923,2020-5-08T04:22:12Z
2020-05-08T02:24:34Z,42.805,6.029,13.2976,4.60001,2469.96,2020-5-08T04:25:15Z
2020-05-08T02:27:37Z,42.805,6.029,13.2979,4.59993,2469.947,2020-5-08T04:28:18Z
2020-05-08T02:30:40Z,42.805,6.029,13.2984,4.59984,2469.96,2020-5-08T04:31:22Z
2020-05-08T02:33:43Z,42.805,6.029,13.2974,4.59986,2470.007,2020-5-08T04:34:25Z
2020-05-08T02:36:47Z,42.805,6.029,13.2975,4.60003,2469.947,2020-5-08T04:37:28Z
2020-05-08T02:39:50Z,42.805,6.029,13.2982,4.59986,2469.97,2020-5-08T04:40:31Z
2020-05-08T02:42:53Z,42.805,6.029,13.2974,4.59984,2469.96,2020-5-08T04:43:34Z
2020-05-08T02:45:56Z,42.805,6.029,13.2972,4.59982,2469.984,2020-5-08T04:46:38Z
2020-05-08T02:49:00Z,42.805,6.029,13.2980,4.59984,2469.96,2020-5-08T04:49:41Z
2020-05-08T02:52:03Z,42.805,6.029,13.2974,4.59982,2469.947,2020-5-08T04:52:44Z
2020-05-08T02:55:06Z,42.805,6.029,13.2969,4.59979,2469.984,2020-5-08T04:55:47Z
2020-05-08T02:58:09Z,42.805,6.029,13.2976,4.59981,2469.923,2020-5-08T04:58:51Z
2020-05-08T03:01:12Z,42.805,6.029,13.2984,4.59991,2469.96,2020-5-08T05:01:54Z
2020-05-08T03:04:16Z,42.805,6.029,13.2983,4.59985,2469.96,2020-5-08T05:04:57Z
2020-05-08T03:07:19Z,42.805,6.029,13.2974,4.59988,2469.984,2020-5-08T05:08:00Z
2020-05-08T03:10:22Z,42.805,6.029,13.2974,4.59992,2469.984,2020-5-08T05:11:04Z
2020-05-08T03:13:26Z,42.805,6.029,13.2977,4.59985,2469.96,2020-5-08T05:14:07Z
2020-05-08T03:16:29Z,42.805,6.029,13.2974,4.59986,2469.947,2020-5-08T05:17:10Z
2020-05-08T03:19:32Z,42.805,6.029,13.2976,4.59983,2469.947,2020-5-08T05:20:13Z
2020-05-08T03:22:35Z,42.805,6.029,13.2971,4.59982,2469.947,2020-5-08T05:23:17Z
2020-05-08T03:25:39Z,42.805,6.029,13.2973,4.59988,2469.993,2020-5-08T05:26:20Z
2020-05-08T03:28:42Z,42.805,6.029,13.2980,4.59988,2469.993,2020-5-08T05:29:23Z
2020-05-08T03:31:45Z,42.805,6.029,13.2971,4.59985,2469.984,2020-5-08T05:32:26Z
2020-05-08T03:34:48Z,42.805,6.029,13.2975,4.59981,2469.993,2020-5-08T05:35:30Z
2020-05-08T03:37:52Z,42.805,6.029,13.2975,4.59991,2469.947,2020-5-08T05:38:33Z
2020-05-08T03:40:55Z,42.805,6.029,13.2981,4.59987,2469.993,2020-5-08T05:41:36Z
2020-05-08T03:43:58Z,42.805,6.029,13.2971,4.59990,2469.984,2020-5-08T05:44:40Z
2020-05-08T03:47:02Z,42.805,6.029,13.2972,4.59983,2469.97,2020-5-08T05:47:43Z
2020-05-08T03:50:05Z,42.805,6.029,13.2977,4.59986,2470.007,2020-5-08T05:50:46Z
2020-05-08T03:53:08Z,42.805,6.029,13.2975,4.60000,2470.017,2020-5-08T05:53:49Z
2020-05-08T03:56:11Z,42.805,6.029,13.2967,4.59983,2469.993,2020-5-08T05:56:53Z
2020-05-08T03:59:14Z,42.805,6.029,13.2974,4.59993,2469.993,2020-5-08T05:59:56Z
2020-05-08T04:02:18Z,42.805,6.029,13.2978,4.59986,2469.984,2020-5-08T06:02:59Z
2020-05-08T04:05:21Z,42.805,6.029,13.2976,4.59982,2470.03,2020-5-08T06:06:03Z
2020-05-08T04:08:25Z,42.805,6.029,13.2974,4.59999,2469.993,2020-5-08T06:09:06Z
2020-05-08T04:11:28Z,42.805,6.029,13.2982,4.59991,2469.993,2020-5-08T06:12:09Z
2020-05-08T04:14:31Z,42.805,6.029,13.2972,4.59985,2470.026,2020-5-08T06:15:12Z
2020-05-08T04:17:34Z,42.805,6.029,13.2979,4.59985,2469.993,2020-5-08T06:18:16Z
2020-05-08T04:20:38Z,42.805,6.029,13.2974,4.59981,2469.993,2020-5-08T06:21:19Z
2020-05-08T04:23:41Z,42.805,6.029,13.2974,4.59983,2470.03,2020-5-08T06:24:22Z
2020-05-08T04:26:44Z,42.805,6.029,13.2972,4.59984,2469.993,2020-5-08T06:27:25Z
2020-05-08T04:29:47Z,42.805,6.029,13.2979,4.59989,2470.017,2020-5-08T06:30:29Z
2020-05-08T04:32:50Z,42.805,6.029,13.2979,4.60007,2470.03,2020-5-08T06:33:32Z
2020-05-08T04:35:54Z,42.805,6.029,13.2979,4.59986,2470.04,2020-5-08T06:36:35Z
2020-05-08T04:38:57Z,42.805,6.029,13.2975,4.59982,2470.053,2020-5-08T06:39:38Z
2020-05-08T04:42:00Z,42.805,6.029,13.2976,4.59982,2470.063,2020-5-08T06:42:41Z
2020-05-08T04:45:03Z,42.805,6.029,13.2972,4.59981,2470.04,2020-5-08T06:45:45Z
2020-05-08T04:48:07Z,42.805,6.029,13.2969,4.59984,2470.053,2020-5-08T06:48:48Z
2020-05-08T04:51:10Z,42.805,6.029,13.2979,4.59986,2470.063,2020-5-08T06:51:51Z
2020-05-08T04:54:13Z,42.805,6.029,13.2975,4.59983,2470.053,2020-5-08T06:54:55Z
2020-05-08T04:57:16Z,42.805,6.029,13.2978,4.59990,2470.063,2020-5-08T06:57:58Z
2020-05-08T05:00:20Z,42.805,6.029,13.2973,4.59988,2470.04,2020-5-08T07:01:01Z
2020-05-08T05:03:23Z,42.805,6.029,13.2974,4.59983,2470.04,2020-5-08T07:04:04Z
2020-05-08T05:06:26Z,42.805,6.029,13.2980,4.59986,2470.077,2020-5-08T07:07:08Z
2020-05-08T05:09:29Z,42.805,6.029,13.2971,4.59986,2470.087,2020-5-08T07:10:11Z
2020-05-08T05:12:33Z,42.805,6.029,13.2976,4.59989,2470.11,2020-5-08T07:13:14Z
2020-05-08T05:15:36Z,42.805,6.029,13.2982,4.60005,2470.087,2020-5-08T07:16:17Z
2020-05-08T05:18:39Z,42.805,6.029,13.2975,4.59988,2470.11,2020-5-08T07:19:21Z
2020-05-08T05:21:42Z,42.805,6.029,13.2969,4.59983,2470.11,2020-5-08T07:22:24Z
2020-05-08T05:24:46Z,42.805,6.029,13.2977,4.59986,2470.053,2020-5-08T07:25:27Z
2020-05-08T05:27:49Z,42.805,6.029,13.2979,4.59994,2470.11,2020-5-08T07:28:30Z
2020-05-08T05:30:52Z,42.805,6.029,13.2973,4.59988,2470.063,2020-5-08T07:31:34Z
2020-05-08T05:33:55Z,42.805,6.029,13.2974,4.59983,2470.11,2020-5-08T07:34:37Z
2020-05-08T05:36:59Z,42.805,6.029,13.2976,4.59979,2470.11,2020-5-08T07:37:40Z
2020-05-08T05:40:02Z,42.805,6.029,13.2986,4.59986,2470.087,2020-5-08T07:40:43Z
2020-05-08T05:43:05Z,42.805,6.029,13.2978,4.59997,2470.124,2020-5-08T07:43:47Z
2020-05-08T05:46:08Z,42.805,6.029,13.2971,4.59980,2470.147,2020-5-08T07:46:50Z
2020-05-08T05:49:12Z,42.805,6.029,13.2974,4.59987,2470.1,2020-5-08T07:49:53Z
2020-05-08T05:52:15Z,42.805,6.029,13.2976,4.59981,2470.087,2020-5-08T07:52:56Z
2020-05-08T05:55:18Z,42.805,6.029,13.2978,4.59982,2470.147,2020-5-08T07:56:00Z
2020-05-08T05:58:22Z,42.805,6.029,13.2976,4.59983,2470.11,2020-5-08T07:59:03Z
2020-05-08T06:01:25Z,42.805,6.029,13.2976,4.59988,2470.133,2020-5-08T08:02:06Z
2020-05-08T06:04:28Z,42.805,6.029,13.2976,4.59986,2470.096,2020-5-08T08:05:09Z
2020-05-08T06:07:31Z,42.805,6.029,13.2976,4.59984,2470.133,2020-5-08T08:08:13Z
2020-05-08T06:10:34Z,42.805,6.029,13.2975,4.59986,2470.133,2020-5-08T08:11:16Z
2020-05-08T06:13:38Z,42.805,6.029,13.2971,4.59983,2470.133,2020-5-08T08:14:19Z
2020-05-08T06:16:41Z,42.805,6.029,13.2975,4.59986,2470.133,2020-5-08T08:17:22Z
2020-05-08T06:19:44Z,42.805,6.029,13.2972,4.59982,2470.11,2020-5-08T08:20:25Z
2020-05-08T06:22:47Z,42.805,6.029,13.2977,4.59979,2470.156,2020-5-08T08:23:29Z
2020-05-08T06:25:51Z,42.805,6.029,13.2975,4.59984,2470.171,2020-5-08T08:26:32Z
2020-05-08T06:28:54Z,42.805,6.029,13.2974,4.59988,2470.119,2020-5-08T08:29:35Z
2020-05-08T06:31:57Z,42.805,6.029,13.2974,4.60006,2470.133,2020-5-08T08:32:38Z
2020-05-08T06:35:00Z,42.805,6.029,13.2974,4.59983,2470.156,2020-5-08T08:35:42Z
2020-05-08T06:38:04Z,42.805,6.029,13.2976,4.59984,2470.156,2020-5-08T08:38:45Z
2020-05-08T06:41:07Z,42.805,6.029,13.2976,4.59996,2470.156,2020-5-08T08:41:48Z
2020-05-08T06:44:10Z,42.805,6.029,13.2978,4.59995,2470.171,2020-5-08T08:44:52Z
2020-05-08T06:47:14Z,42.805,6.029,13.2971,4.59991,2470.133,2020-5-08T08:47:55Z
2020-05-08T06:50:17Z,42.805,6.029,13.2976,4.59990,2470.156,2020-5-08T08:50:58Z
2020-05-08T06:53:20Z,42.805,6.029,13.2969,4.59983,2470.171,2020-5-08T08:54:01Z
2020-05-08T06:56:23Z,42.805,6.029,13.2976,4.59986,2470.156,2020-5-08T08:57:05Z
2020-05-08T06:59:26Z,42.805,6.029,13.2977,4.59988,2470.156,2020-5-08T09:00:08Z
2020-05-08T07:02:30Z,42.805,6.029,13.2990,4.60003,2470.147,2020-5-08T09:03:11Z
2020-05-08T07:05:33Z,42.805,6.029,13.2979,4.59991,2470.11,2020-5-08T09:06:14Z
2020-05-08T07:08:36Z,42.805,6.029,13.2974,4.59992,2470.194,2020-5-08T09:09:18Z
2020-05-08T07:11:40Z,42.805,6.029,13.2982,4.59997,2470.156,2020-5-08T09:12:21Z
2020-05-08T07:14:43Z,42.805,6.029,13.2975,4.59984,2470.156,2020-5-08T09:15:24Z
2020-05-08T07:17:46Z,42.805,6.029,13.2974,4.59980,2470.18,2020-5-08T09:18:27Z
2020-05-08T07:20:49Z,42.805,6.029,13.2977,4.59983,2470.147,2020-5-08T09:21:31Z
2020-05-08T07:23:52Z,42.805,6.029,13.2976,4.59986,2470.156,2020-5-08T09:24:34Z
2020-05-08T07:26:56Z,42.805,6.029,13.2972,4.59985,2470.156,2020-5-08T09:27:37Z
2020-05-08T07:29:59Z,42.805,6.029,13.2972,4.59986,2470.171,2020-5-08T09:30:40Z
2020-05-08T07:33:02Z,42.805,6.029,13.2981,4.59997,2470.194,2020-5-08T09:33:44Z
2020-05-08T07:36:06Z,42.805,6.029,13.2976,4.59991,2470.171,2020-5-08T09:36:47Z
2020-05-08T07:39:09Z,42.805,6.029,13.2976,4.60004,2470.156,2020-5-08T09:39:50Z
2020-05-08T07:42:12Z,42.805,6.029,13.2977,4.59987,2470.133,2020-5-08T09:42:53Z
2020-05-08T07:45:15Z,42.805,6.029,13.2974,4.59987,2470.18,2020-5-08T09:45:57Z
2020-05-08T07:48:18Z,42.805,6.029,13.2975,4.59995,2470.18,2020-5-08T09:49:00Z
2020-05-08T07:51:22Z,42.805,6.029,13.2979,4.59992,2470.156,2020-5-08T09:52:03Z
2020-05-08T07:54:25Z,42.805,6.029,13.2974,4.59986,2470.156,2020-5-08T09:55:06Z
2020-05-08T07:57:28Z,42.805,6.029,13.2984,4.59996,2470.171,2020-5-08T09:58:10Z
2020-05-08T08:00:32Z,42.805,6.029,13.2975,4.60002,2470.147,2020-5-08T10:01:13Z
2020-05-08T08:03:35Z,42.805,6.029,13.2985,4.60007,2470.203,2020-5-08T10:04:16Z
2020-05-08T08:06:38Z,42.805,6.029,13.2975,4.60000,2470.11,2020-5-08T10:07:19Z
2020-05-08T08:09:41Z,42.805,6.029,13.2979,4.59994,2470.133,2020-5-08T10:10:23Z
2020-05-08T08:12:44Z,42.805,6.029,13.2979,4.59988,2470.171,2020-5-08T10:13:26Z
2020-05-08T08:15:48Z,42.805,6.029,13.2979,4.59996,2470.11,2020-5-08T10:16:29Z
2020-05-08T08:18:51Z,42.805,6.029,13.2974,4.59990,2470.133,2020-5-08T10:19:32Z
2020-05-08T08:21:54Z,42.805,6.029,13.2977,4.59986,2470.147,2020-5-08T10:22:36Z
2020-05-08T08:24:57Z,42.805,6.029,13.2979,4.59989,2470.156,2020-5-08T10:25:39Z
2020-05-08T08:28:01Z,42.805,6.029,13.2979,4.59982,2470.133,2020-5-08T10:28:42Z
2020-05-08T08:31:04Z,42.805,6.029,13.2981,4.59992,2470.133,2020-5-08T10:31:45Z
2020-05-08T08:34:07Z,42.805,6.029,13.2975,4.59991,2470.147,2020-5-08T10:34:49Z
2020-05-08T08:37:11Z,42.805,6.029,13.2980,4.59987,2470.133,2020-5-08T10:37:52Z
2020-05-08T08:40:14Z,42.805,6.029,13.2975,4.60005,2470.156,2020-5-08T10:40:55Z
2020-05-08T08:43:17Z,42.805,6.029,13.2977,4.59996,2470.147,2020-5-08T10:43:58Z
2020-05-08T08:46:20Z,42.805,6.029,13.2975,4.59983,2470.119,2020-5-08T10:47:02Z
2020-05-08T08:49:24Z,42.805,6.029,13.2974,4.59978,2470.133,2020-5-08T10:50:05Z
2020-05-08T08:52:27Z,42.805,6.029,13.2972,4.59981,2470.133,2020-5-08T10:53:08Z
2020-05-08T08:55:30Z,42.805,6.029,13.2974,4.59991,2470.156,2020-5-08T10:56:11Z
2020-05-08T08:58:33Z,42.805,6.029,13.2983,4.60007,2470.133,2020-5-08T10:59:15Z
2020-05-08T09:01:37Z,42.805,6.029,13.2979,4.60005,2470.133,2020-5-08T11:02:18Z
2020-05-08T09:04:40Z,42.805,6.029,13.2976,4.60003,2470.133,2020-5-08T11:05:21Z
2020-05-08T09:07:43Z,42.805,6.029,13.2975,4.59987,2470.11,2020-5-08T11:08:24Z
2020-05-08T09:10:46Z,42.805,6.029,13.2974,4.59983,2470.133,2020-5-08T11:11:28Z
2020-05-08T09:13:50Z,42.805,6.029,13.2980,4.60010,2470.124,2020-5-08T11:14:31Z
2020-05-08T09:16:53Z,42.805,6.029,13.2974,4.59997,2470.124,2020-5-08T11:17:34Z
2020-05-08T09:19:56Z,42.805,6.029,13.2973,4.59984,2470.124,2020-5-08T11:20:38Z
2020-05-08T09:22:59Z,42.805,6.029,13.2981,4.60011,2470.156,2020-5-08T11:23:41Z
2020-05-08T09:26:02Z,42.805,6.029,13.2977,4.59987,2470.1,2020-5-08T11:26:44Z
2020-05-08T09:29:06Z,42.805,6.029,13.2982,4.59986,2470.1,2020-5-08T11:29:47Z
2020-05-08T09:32:09Z,42.805,6.029,13.2979,4.59989,2470.063,2020-5-08T11:32:50Z
2020-05-08T09:35:12Z,42.805,6.029,13.2980,4.60016,2470.119,2020-5-08T11:35:54Z
2020-05-08T09:38:15Z,42.805,6.029,13.2974,4.59985,2470.077,2020-5-08T11:38:57Z
2020-05-08T09:41:19Z,42.805,6.029,13.2977,4.60003,2470.11,2020-5-08T11:42:00Z
2020-05-08T09:44:22Z,42.805,6.029,13.2974,4.59989,2470.124,2020-5-08T11:45:03Z
2020-05-08T09:47:25Z,42.805,6.029,13.2983,4.59991,2470.077,2020-5-08T11:48:07Z
2020-05-08T09:50:28Z,42.805,6.029,13.2983,4.60010,2470.171,2020-5-08T11:51:10Z
2020-05-08T09:53:32Z,42.805,6.029,13.2976,4.59991,2470.11,2020-5-08T11:54:13Z
2020-05-08T09:56:35Z,42.805,6.029,13.2975,4.59986,2470.077,2020-5-08T11:57:16Z
2020-05-08T09:59:38Z,42.805,6.029,13.2969,4.59983,2470.077,2020-5-08T12:00:19Z
2020-05-08T10:02:41Z,42.805,6.029,13.2976,4.60002,2470.063,2020-5-08T12:03:23Z
2020-05-08T10:05:45Z,42.805,6.029,13.2978,4.60002,2470.077,2020-5-08T12:06:26Z
2020-05-08T10:08:48Z,42.805,6.029,13.2974,4.60003,2470.063,2020-5-08T12:09:29Z
2020-05-08T10:11:51Z,42.805,6.029,13.2976,4.59989,2470.1,2020-5-08T12:12:33Z
2020-05-08T10:14:54Z,42.805,6.029,13.2974,4.59983,2470.077,2020-5-08T12:15:36Z
2020-05-08T10:17:58Z,42.805,6.029,13.2979,4.59998,2470.063,2020-5-08T12:18:39Z
2020-05-08T10:21:01Z,42.805,6.029,13.2977,4.59985,2470.063,2020-5-08T12:21:42Z
2020-05-08T10:24:04Z,42.805,6.029,13.2977,4.59997,2470.063,2020-5-08T12:24:46Z
2020-05-08T10:27:07Z,42.805,6.029,13.2972,4.59988,2470.063,2020-5-08T12:27:49Z
2020-05-08T10:30:11Z,42.805,6.029,13.2969,4.59983,2470.053,2020-5-08T12:30:52Z
2020-05-08T10:33:14Z,42.805,6.029,13.2978,4.59992,2470.063,2020-5-08T12:33:55Z
2020-05-08T10:36:17Z,42.805,6.029,13.2979,4.59985,2470.03,2020-5-08T12:36:58Z
2020-05-08T10:39:20Z,42.805,6.029,13.2969,4.59981,2470.063,2020-5-08T12:40:02Z
2020-05-08T10:42:23Z,42.805,6.029,13.2971,4.59988,2470.077,2020-5-08T12:43:05Z
2020-05-08T10:45:27Z,42.805,6.029,13.2975,4.59999,2470.04,2020-5-08T12:46:08Z
2020-05-08T10:48:30Z,42.805,6.029,13.2976,4.59991,2470.04,2020-5-08T12:49:12Z
2020-05-08T10:51:33Z,42.805,6.029,13.2979,4.59994,2470.063,2020-5-08T12:52:15Z
2020-05-08T10:54:37Z,42.805,6.029,13.2971,4.59980,2470.04,2020-5-08T12:55:18Z
2020-05-08T10:57:40Z,42.805,6.029,13.2971,4.59978,2470.063,2020-5-08T12:58:21Z
2020-05-08T11:00:43Z,42.805,6.029,13.2971,4.59951,2470.017,2020-5-08T13:01:24Z
2020-05-08T11:03:46Z,42.805,6.029,13.2976,4.59984,2470.053,2020-5-08T13:04:28Z
2020-05-08T11:06:49Z,42.805,6.029,13.2971,4.59981,2470.04,2020-5-08T13:07:31Z
2020-05-08T11:09:53Z,42.805,6.029,13.2975,4.59982,2470.077,2020-5-08T13:10:34Z
2020-05-08T11:12:56Z,42.805,6.029,13.2974,4.59984,2470.053,2020-5-08T13:13:37Z
2020-05-08T11:15:59Z,42.805,6.029,13.2975,4.59981,2470.04,2020-5-08T13:16:41Z
2020-05-08T11:19:02Z,42.805,6.029,13.2974,4.59991,2470.017,2020-5-08T13:19:44Z
2020-05-08T11:22:06Z,42.805,6.029,13.2976,4.59994,2469.993,2020-5-08T13:22:47Z
2020-05-08T11:25:09Z,42.805,6.029,13.2975,4.59984,2470.017,2020-5-08T13:25:50Z
2020-05-08T11:28:12Z,42.805,6.029,13.2970,4.59991,2470.007,2020-5-08T13:28:54Z
2020-05-08T11:31:15Z,42.805,6.029,13.2979,4.60001,2470.007,2020-5-08T13:31:57Z
2020-05-08T11:34:19Z,42.805,6.029,13.2974,4.59986,2470.017,2020-5-08T13:35:00Z
2020-05-08T11:37:22Z,42.805,6.029,13.2977,4.59988,2469.993,2020-5-08T13:38:03Z
2020-05-08T11:40:25Z,42.805,6.029,13.2971,4.59989,2470.007,2020-5-08T13:41:07Z
2020-05-08T11:43:28Z,42.805,6.029,13.2981,4.60009,2470.04,2020-5-08T13:44:10Z
2020-05-08T11:46:32Z,42.805,6.029,13.2975,4.59994,2469.993,2020-5-08T13:47:13Z
2020-05-08T11:49:35Z,42.805,6.029,13.2976,4.59987,2470.017,2020-5-08T13:50:16Z
2020-05-08T11:52:38Z,42.805,6.029,13.2978,4.59991,2469.993,2020-5-08T13:53:20Z
2020-05-08T11:55:41Z,42.805,6.029,13.2982,4.59996,2470.03,2020-5-08T13:56:23Z
2020-05-08T11:58:45Z,42.805,6.029,13.2968,4.60004,2469.993,2020-5-08T13:59:26Z
2020-05-08T12:01:48Z,42.805,6.029,13.2976,4.60001,2469.993,2020-5-08T14:02:30Z
2020-05-08T12:04:51Z,42.805,6.029,13.2974,4.59984,2469.993,2020-5-08T14:05:33Z
2020-05-08T12:07:55Z,42.805,6.029,13.2968,4.59987,2469.97,2020-5-08T14:08:36Z
2020-05-08T12:10:58Z,42.805,6.029,13.2981,4.59988,2470.017,2020-5-08T14:11:39Z
2020-05-08T12:14:01Z,42.805,6.029,13.2970,4.59983,2469.97,2020-5-08T14:14:43Z
2020-05-08T12:17:04Z,42.805,6.029,13.2971,4.59993,2470.007,2020-5-08T14:17:46Z
2020-05-08T12:20:08Z,42.805,6.029,13.2970,4.59994,2469.97,2020-5-08T14:20:49Z
2020-05-08T12:23:11Z,42.805,6.029,13.2976,4.60003,2469.993,2020-5-08T14:23:52Z
2020-05-08T12:26:14Z,42.805,6.029,13.2988,4.60003,2469.947,2020-5-08T14:26:56Z
2020-05-08T12:29:17Z,42.805,6.029,13.2978,4.60005,2469.984,2020-5-08T14:29:59Z
2020-05-08T12:32:21Z,42.805,6.029,13.2979,4.60011,2469.97,2020-5-08T14:33:02Z
2020-05-08T12:35:24Z,42.805,6.029,13.2978,4.60001,2469.97,2020-5-08T14:36:05Z
2020-05-08T12:38:27Z,42.805,6.029,13.2973,4.59991,2469.993,2020-5-08T14:39:08Z
2020-05-08T12:41:30Z,42.805,6.029,13.2969,4.59985,2469.947,2020-5-08T14:42:12Z
2020-05-08T12:44:33Z,42.805,6.029,13.2979,4.59998,2469.97,2020-5-08T14:45:15Z
2020-05-08T12:47:37Z,42.805,6.029,13.2975,4.60006,2469.97,2020-5-08T14:48:18Z
2020-05-08T12:50:40Z,42.805,6.029,13.2974,4.59986,2469.984,2020-5-08T14:51:21Z
2020-05-08T12:53:43Z,42.805,6.029,13.2990,4.60009,2469.984,2020-5-08T14:54:25Z
2020-05-08T12:56:47Z,42.805,6.029,13.2967,4.59986,2469.96,2020-5-08T14:57:28Z
2020-05-08T12:59:50Z,42.805,6.029,13.2971,4.59990,2469.96,2020-5-08T15:00:31Z
2020-05-08T13:02:53Z,42.805,6.029,13.2976,4.59989,2469.923,2020-5-08T15:03:35Z
2020-05-08T13:05:56Z,42.805,6.029,13.2990,4.60001,2469.97,2020-5-08T15:06:38Z
2020-05-08T13:09:00Z,42.805,6.029,13.2987,4.60022,2469.947,2020-5-08T15:09:41Z
2020-05-08T13:12:03Z,42.805,6.029,13.2972,4.60011,2469.923,2020-5-08T15:12:45Z
2020-05-08T13:15:06Z,42.805,6.029,13.2978,4.59997,2469.937,2020-5-08T15:15:48Z
2020-05-08T13:18:10Z,42.805,6.029,13.2976,4.59999,2469.984,2020-5-08T15:18:51Z
2020-05-08T13:21:13Z,42.805,6.029,13.2977,4.60016,2469.947,2020-5-08T15:21:54Z
2020-05-08T13:24:16Z,42.805,6.029,13.2979,4.60011,2469.947,2020-5-08T15:24:58Z
2020-05-08T13:27:19Z,42.805,6.029,13.2974,4.59987,2469.923,2020-5-08T15:28:01Z
2020-05-08T13:30:23Z,42.805,6.029,13.2980,4.60026,2469.96,2020-5-08T15:31:04Z
2020-05-08T13:33:26Z,42.805,6.029,13.2989,4.60013,2469.923,2020-5-08T15:34:07Z
2020-05-08T13:36:29Z,42.805,6.029,13.2987,4.60019,2469.923,2020-5-08T15:37:11Z
2020-05-08T13:39:33Z,42.805,6.029,13.2983,4.59999,2469.923,2020-5-08T15:40:14Z
2020-05-08T13:42:36Z,42.805,6.029,13.2982,4.60000,2469.923,2020-5-08T15:43:17Z
2020-05-08T13:45:39Z,42.805,6.029,13.2985,4.60014,2469.923,2020-5-08T15:46:21Z
2020-05-08T13:48:43Z,42.805,6.029,13.2980,4.60000,2469.923,2020-5-08T15:49:24Z
2020-05-08T13:51:46Z,42.805,6.029,13.2974,4.60011,2469.914,2020-5-08T15:52:27Z
2020-05-08T13:54:49Z,42.805,6.029,13.2984,4.60004,2469.96,2020-5-08T15:55:30Z
2020-05-08T13:57:52Z,42.805,6.029,13.2987,4.60002,2469.914,2020-5-08T15:58:34Z
2020-05-08T14:00:55Z,42.805,6.029,13.2982,4.60017,2469.937,2020-5-08T16:01:37Z
2020-05-08T14:03:59Z,42.805,6.029,13.2973,4.59991,2469.937,2020-5-08T16:04:40Z
2020-05-08T14:07:02Z,42.805,6.029,13.2976,4.59996,2469.9,2020-5-08T16:07:43Z
2020-05-08T14:10:05Z,42.805,6.029,13.2983,4.60002,2469.937,2020-5-08T16:10:47Z
2020-05-08T14:13:09Z,42.805,6.029,13.2981,4.60010,2469.937,2020-5-08T16:13:50Z
2020-05-08T14:16:12Z,42.805,6.029,13.2985,4.60017,2469.937,2020-5-08T16:16:53Z
2020-05-08T14:19:15Z,42.805,6.029,13.2988,4.60007,2469.9,2020-5-08T16:19:57Z
2020-05-08T14:22:18Z,42.805,6.029,13.2978,4.59990,2469.9,2020-5-08T16:23:00Z
2020-05-08T14:25:22Z,42.805,6.029,13.2975,4.59991,2469.923,2020-5-08T16:26:03Z
2020-05-08T14:28:25Z,42.805,6.029,13.2976,4.59987,2469.9,2020-5-08T16:29:06Z
2020-05-08T14:31:28Z,42.805,6.029,13.2979,4.59995,2469.937,2020-5-08T16:32:09Z
2020-05-08T14:34:31Z,42.805,6.029,13.2983,4.60006,2469.923,2020-5-08T16:35:13Z
2020-05-08T14:37:35Z,42.805,6.029,13.2981,4.59998,2469.9,2020-5-08T16:38:16Z
2020-05-08T14:40:38Z,42.805,6.029,13.2975,4.59994,2469.937,2020-5-08T16:41:19Z
2020-05-08T14:43:41Z,42.805,6.029,13.2984,4.59998,2469.9,2020-5-08T16:44:22Z
2020-05-08T14:46:44Z,42.805,6.029,13.2977,4.59996,2469.923,2020-5-08T16:47:26Z
2020-05-08T14:49:47Z,42.805,6.029,13.2983,4.59988,2469.923,2020-5-08T16:50:29Z
2020-05-08T14:52:51Z,42.805,6.029,13.2976,4.59988,2469.947,2020-5-08T16:53:32Z
2020-05-08T14:55:54Z,42.805,6.029,13.2990,4.60006,2469.947,2020-5-08T16:56:36Z
2020-05-08T14:58:57Z,42.805,6.029,13.2986,4.59999,2469.923,2020-5-08T16:59:39Z
2020-05-08T15:02:01Z,42.805,6.029,13.2973,4.59988,2469.876,2020-5-08T17:02:42Z
2020-05-08T15:05:04Z,42.805,6.029,13.2975,4.59989,2469.937,2020-5-08T17:05:45Z
2020-05-08T15:08:07Z,42.805,6.029,13.2982,4.59991,2469.96,2020-5-08T17:08:49Z
2020-05-08T15:11:10Z,42.805,6.029,13.2978,4.60021,2469.923,2020-5-08T17:11:52Z